Regional Weather Roundup
Issued by NWS

Home | Current Version | Previous Version | Text Only | Print | Product List | Glossary Off
Versions: 1 2 3 4 5 6 7 8 9 10 11 12 13 14 15 16 17 18 19 20 21 22 23 24 25 26 27 28 29 30 31 32 33 34 35 36 37 38 39 40 41 42 43 44 45 46 47 48 49 50

000
ASUS43 KMKX 252211
RWRWI

WISCONSIN REGIONAL WEATHER ROUNDUP
NATIONAL WEATHER SERVICE MILWAUKEE/SULLIVAN WI
500 PM CDT SUN SEP 25 2016

NOTE: "FAIR" INDICATES FEW OR NO CLOUDS BELOW 12,000 FEET WITH NO
SIGNIFICANT WEATHER AND/OR OBSTRUCTIONS TO VISIBILITY.

WIZ001-002-006>008-014>016-023>028-252300-
NORTHWEST WISCONSIN

CITY           SKY/WX    TMP DP  RH WIND       PRES   REMARKS
SUPERIOR ARPT  CLOUDY    63  54  73 SW9       29.77F
ASHLAND        CLOUDY    64  54  69 SW15G30   29.78R
HAYWARD        CLOUDY    61  50  67 SW7       29.83S
SIREN          CLOUDY    61  53  74 W12       29.84S
CUMBERLAND     PTSUNNY   61  50  67 W16G22    29.85F
RICE LAKE      PTSUNNY   64  50  61 SW15G21   29.87F
CHETEK         NOT AVBL
LADYSMITH      CLOUDY    65  53  65 W15G21    29.87R
EAU CLAIRE     CLOUDY    64  52  64 W18G30    29.88R
MENOMONIE      PTSUNNY   64  53  66 SW12      29.88S
NEW RICHMOND   CLOUDY    62  53  72 SW14      29.88R
OSCEOLA        RAIN      61  55  80 SW13      29.90S
$$

WIZ003>005-009-010-017-018-252300-
NORTH CENTRAL WISCONSIN

CITY           SKY/WX    TMP DP  RH WIND       PRES   REMARKS
MANITOWISH WTR NOT AVBL
ARBOR VITAE    CLOUDY    69  67  93 SW3       29.81S
WOODRUFF       CLOUDY    69  67  93 SW3       29.81S
RHINELANDER    CLOUDY    68  67  96 S5        29.83F
EAGLE RIVER    CLOUDY    66  65  98 S6        29.82F FOG
LAND O LAKES   CLOUDY    66  64  94 S6        29.83F
PHILLIPS       CLOUDY    66  59  78 SW8       29.82S
TOMAHAWK       MOSUNNY   67  60  78 SW5       29.83S
MEDFORD        CLOUDY    65  56  73 W14G23    29.85R
MERRILL        CLOUDY    69  67  93 SW5       29.83F
$$

WIZ029-030-035-036-043>047-252300-
CENTRAL WISCONSIN

CITY           SKY/WX    TMP DP  RH WIND       PRES   REMARKS
WAUSAU         PTSUNNY   69  66  90 SW6       29.82S
MOSINEE        PTSUNNY   70  68  94 SW8       29.84F
MARSHFIELD     CLOUDY    70  60  70 W13       29.85R
STEVENS POINT  MOSUNNY   69  67  92 SW8       29.85R
WAUPACA        CLOUDY    74  72  91 SW5       29.84S
WAUTOMA        CLOUDY    74  68  81 SW7       29.85S
WISC RAPIDS    CLOUDY    72  68  87 W8        29.85S
CAMP DOUGLAS   CLOUDY    72  64  74 W14G25    29.86
$$

WIZ011>013-019>022-031-037>040-048>050-252300-
NORTHEAST WISCONSIN

CITY           SKY/WX    TMP DP  RH WIND       PRES   REMARKS
ANTIGO         CLOUDY    67  66  97 SW6       29.85S
SHAWANO        CLOUDY    73  70  88 S3        29.84S
OCONTO         NOT AVBL
STURGEON BAY   LGT RAIN  67  63  87 S15G25    29.85F
GREEN BAY      LGT RAIN  68  68 100 S8        29.86R
MANITOWOC      LGT RAIN  66  63  90 MISG      29.88S
APPLETON       CLOUDY    72  72 100 SW7       29.84S
CLINTONVILLE   NOT AVBL
OSHKOSH        CLOUDY    74  70  87 S6        29.85R
$$

WIZ032>034-041-042-053>061-252300-
SOUTHWEST WISCONSIN

CITY           SKY/WX    TMP DP  RH WIND       PRES   REMARKS
LA CROSSE      CLOUDY    69  54  58 W7G20     29.90R
SPARTA         CLOUDY    69  57  63 W16G24    29.90R
VIROQUA        CLOUDY    67  54  62 W10G21    29.92R
BOSCOBEL       MOSUNNY   73  60  63 SW13      29.91R
PRAIRIE DU CHI MOSUNNY   68  52  56 W14G20    29.94R
PLATTEVILLE    PTSUNNY   73  67  80 W16G26    29.92R
$$

WIZ056-057-062-063-064-067-068-252300-
SOUTH CENTRAL WISCONSIN

CITY           SKY/WX    TMP DP  RH WIND       PRES   REMARKS
REEDSBURG      NOT AVBL
BARABOO/DELLS  CLOUDY    73  64  74 SW8       29.87S
LONE ROCK      CLOUDY    74  65  73 W9G21     29.89R
MINERAL POINT  CLOUDY    73  68  83 W12G18    29.91S
MADISON        CLOUDY    76  66  71 SW7G17    29.87R
MIDDLETON      CLOUDY    76  67  72 W12       29.88S
WATERTOWN      MOSUNNY   73  73 100 S3        29.86F
MONROE         PTSUNNY   77  64  65 SW15      29.90S
JANESVILLE     PTSUNNY   81  70  69 W10G16    29.87F HX  84
$$

WIZ051-052-058>065-066-070>072-252300-
SOUTHEAST WISCONSIN

CITY           SKY/WX    TMP DP  RH WIND       PRES   REMARKS
MILWAUKEE      TSTM      73  67  81 CALM      29.90R
WAUKESHA       PTSUNNY   70  68  94 SW12      29.91F
MILWAUKEE/TIMM LGT RAIN  70  64  83 S5        29.90F
RACINE         LGT RAIN  72  65  78 SW8       29.92R
BURLINGTON     PTSUNNY   73  70  91 CALM      29.89F
KENOSHA        CLOUDY    73  69  87 S5        29.91R THUNDER
FOND DU LAC    CLOUDY    72  68  87 SE12      29.86S
SHEBOYGAN      TSTM      67  63  87 S18G26    29.90R FOG
WEST BEND      CLOUDY    68  64  88 SE7       29.88F
JUNEAU         PTSUNNY   74  71  88 S8        29.87S
$$

LSZ147-162-252300-
LAKE SUPERIOR

STATION/POSITION TIME  TEMP    WIND        PRES    WAVE
                       AIR SEA DIR/SP/G            HT/PER
                 (UTC) (F)     (DEG/KT/KT) (MB)    (FT/S)
W MID LAKE BUOY  2150   65 61  200/  8/  8 1006.2R   2/ 4
DEVILS ISLAND    2200   60     250/ 29/ 33 1007.1R
SAXON HARBOR     2140   71     230/  6/ 13 1007.8R
$$

LMZ867-665-643>646-252300-
LAKE MICHIGAN

STATION/POSITION TIME  TEMP    WIND        PRES    WAVE
                       AIR SEA DIR/SP/G            HT/PER
                 (UTC) (F)     (DEG/KT/KT) (MB)    (FT/S)
CHAMBERS ISLAND  2100   66     140/  6/ 11 1011.2F
N MID LAKE BUOY  2150   69 68  150/ 12/ 12 1011.2F   3/ 6
NORTHPORT PIER   2100   68     150/ 12/ 17 1011.9F
KEWAUNEE LAKESHO 2100   67     170/ 18/ 22 1011.2F
SHEBOYGAN LAKESH 2200   67     190/ 19/ 22 1011.7R
PORT WASHINGTON  2140   65     190/ 11/ 20 1013.5R
ATWATER BUOY     2100   61 52  180/  8/ 12 1012.4F
MILWAUKEE LAKESH 2110   64     150/ 14/ 15   N/A
S MID LAKE BUOY  2150   74 72  130/ 16/ 17 1012.0F   3/ 5
KENOSHA   LAKESH 2200   73     300/ 10/ 18 1012.2R
$$

TC  - TEMPERATURE IN CELSIUS
VSB - VISIBILITY IN STATUTE MILES
WCI - WIND CHILL INDEX
HX  - HEAT INDEX





USA.gov is the U.S. government's official web portal to all federal, state and local government web resources and services.